| time (UTC) | temp C | wind direction | speed KPH | gust KPH | rain 1hr cm | rain 24hr cm | rain mn cm | humidity % | barometer mb |
| 20260504080346 | 17 | 1.6 | 4.8 | 0.00 | 0.00 | 0.33 | 99 | 1013.9 | |
| 20260504070233 | 19 | 0.0 | 0.0 | 0.00 | 0.00 | 0.33 | 99 | 1013.6 | |
| 20260504060122 | 22 | 0.0 | 0.0 | 0.00 | 0.00 | 0.33 | 99 | 1013.2 | |
| 20260504050514 | 13 | 0.0 | 0.0 | 0.00 | 0.00 | 0.33 | 99 | 1013.1 | |
| 20260504050008 | 13 | 0.0 | 0.0 | 0.00 | 0.00 | 0.33 | 99 | 1013.1 | |
| 20260504045502 | 13 | 0.0 | 1.6 | 0.00 | 0.00 | 0.33 | 99 | 1013.0 | |
| 20260504044956 | 13 | 0.0 | 1.6 | 0.00 | 0.00 | 0.33 | 99 | 1013.0 | |
| 20260504044459 | 13 | 0.0 | 0.0 | 0.00 | 0.00 | 0.33 | 99 | 1012.9 | |
| 20260504043944 | 13 | 0.0 | 0.0 | 0.00 | 0.00 | 0.33 | 99 | 1012.8 | |
| 20260504043438 | 13 | 0.0 | 1.6 | 0.00 | 0.00 | 0.33 | 99 | 1012.7 | |
| 20260504042932 | 13 | 0.0 | 1.6 | 0.00 | 0.00 | 0.33 | 99 | 1012.7 | |
| 20260504042427 | 13 | 0.0 | 1.6 | 0.00 | 0.00 | 0.33 | 99 | 1012.6 | |
| 20260504041920 | 13 | 1.6 | 3.2 | 0.00 | 0.00 | 0.33 | 99 | 1012.6 | |
| 20260504041423 | 13 | 0.0 | 1.6 | 0.00 | 0.00 | 0.33 | 99 | 1012.6 | |
| 20260504040908 | 13 | 0.0 | 1.6 | 0.00 | 0.00 | 0.33 | 99 | 1012.7 | |
| 20260504040402 | 13 | 0.0 | 1.6 | 0.00 | 0.00 | 0.33 | 99 | 1012.8 | |
| 20260504035856 | 13 | 0.0 | 1.6 | 0.00 | 0.00 | 0.33 | 99 | 1012.9 | |
| 20260504035349 | 13 | 0.0 | 1.6 | 0.00 | 0.00 | 0.33 | 99 | 1012.8 | |
| 20260504034844 | 13 | 1.6 | 3.2 | 0.00 | 0.00 | 0.33 | 99 | 1012.8 | |
| 20260504034346 | 13 | 0.0 | 1.6 | 0.00 | 0.00 | 0.33 | 99 | 1012.8 | |
| 20260504033832 | 13 | 1.6 | 3.2 | 0.00 | 0.00 | 0.33 | 99 | 1012.8 | |
| 20260504033326 | 13 | 0.0 | 1.6 | 0.00 | 0.00 | 0.33 | 99 | 1012.8 | |
| 20260504032820 | 13 | 0.0 | 1.6 | 0.00 | 0.00 | 0.33 | 99 | 1013.0 | |
| 20260504032314 | 13 | 0.0 | 1.6 | 0.00 | 0.00 | 0.33 | 99 | 1013.1 | |
| 20260504031809 | 13 | 0.0 | 0.0 | 0.00 | 0.00 | 0.33 | 99 | 1013.2 | |
| 20260504031310 | 13 | 0.0 | 0.0 | 0.00 | 0.00 | 0.33 | 99 | 1013.2 | |
| 20260504030755 | 13 | 1.6 | 4.8 | 0.00 | 0.00 | 0.33 | 99 | 1013.2 | |
| 20260504030249 | 13 | 1.6 | 3.2 | 0.00 | 0.00 | 0.33 | 99 | 1013.2 | |
| 20260504025742 | 13 | 1.6 | 3.2 | 0.00 | 0.00 | 0.33 | 99 | 1013.1 | |
| 20260504025236 | 13 | 1.6 | 4.8 | 0.00 | 0.00 | 0.33 | 99 | 1013.2 | |
| 20260504024731 | 13 | 1.6 | 4.8 | 0.00 | 0.00 | 0.33 | 99 | 1013.1 | |
| 20260504024233 | 13 | 1.6 | 3.2 | 0.00 | 0.00 | 0.33 | 99 | 1013.2 | |
| 20260504023212 | 14 | 1.6 | 6.4 | 0.00 | 0.00 | 0.33 | 99 | 1013.1 | |
| 20260504022707 | 14 | 1.6 | 6.4 | 0.00 | 0.00 | 0.33 | 99 | 1013.2 | |
| 20260504022200 | 14 | 1.6 | 4.8 | 0.00 | 0.00 | 0.33 | 99 | 1013.3 | |
| 20260504021655 | 14 | 1.6 | 4.8 | 0.00 | 0.00 | 0.33 | 99 | 1013.2 | |
| 20260504021157 | 14 | 1.6 | 6.4 | 0.00 | 0.00 | 0.33 | 99 | 1013.2 | |
| 20260504020642 | 14 | 0.0 | 0.0 | 0.00 | 0.00 | 0.33 | 99 | 1013.2 | |
| 20260504020136 | 14 | 0.0 | 0.0 | 0.00 | 0.00 | 0.33 | 99 | 1013.2 | |
| 20260504015629 | 14 | 0.0 | 1.6 | 0.00 | 0.00 | 0.33 | 99 | 1013.1 | |
| 20260504015124 | 14 | 0.0 | 1.6 | 0.00 | 0.00 | 0.33 | 99 | 1013.2 | |
| 20260504014618 | 13 | 1.6 | 4.8 | 0.00 | 0.00 | 0.33 | 99 | 1013.1 | |
| 20260504014121 | 13 | 0.0 | 0.0 | 0.00 | 0.00 | 0.33 | 99 | 1013.2 | |
| 20260504013606 | 13 | 0.0 | 0.0 | 0.00 | 0.00 | 0.33 | 99 | 1013.2 | |
| 20260504013100 | 13 | 0.0 | 0.0 | 0.00 | 0.00 | 0.33 | 99 | 1013.1 | |
| 20260504012554 | 13 | 0.0 | 1.6 | 0.00 | 0.00 | 0.33 | 99 | 1013.1 | |
| 20260504012048 | 13 | 0.0 | 0.0 | 0.00 | 0.00 | 0.33 | 99 | 1012.8 | |
| 20260504011542 | 13 | 0.0 | 0.0 | 0.00 | 0.00 | 0.33 | 99 | 1012.8 | |
| 20260504011045 | 13 | 0.0 | 0.0 | 0.00 | 0.00 | 0.33 | 99 | 1012.8 | |
| 20260504010530 | 13 | 0.0 | 1.6 | 0.00 | 0.00 | 0.33 | 99 | 1012.7 | |
| 20260504010025 | 13 | 1.6 | 3.2 | 0.00 | 0.00 | 0.33 | 99 | 1012.9 | |
| 20260504005517 | 13 | 0.0 | 1.6 | 0.33 | 0.00 | 0.33 | 99 | 1013.2 | |
| 20260504005011 | 13 | 0.0 | 0.0 | 0.33 | 0.00 | 0.33 | 99 | 1012.9 | |
| 20260504004505 | 13 | 0.0 | 1.6 | 0.28 | 0.00 | 0.28 | 99 | 1012.9 | |
| 20260504004007 | 13 | 0.0 | 1.6 | 0.23 | 0.00 | 0.23 | 99 | 1012.7 | |
| 20260504003453 | 13 | 0.0 | 0.0 | 0.00 | 0.00 | 0.00 | 99 | 1012.9 | |
| 20260504002947 | 13 | 0.0 | 0.0 | 0.00 | 0.00 | 0.00 | 99 | 1012.6 | |
| 20260504002441 | 13 | 0.0 | 0.0 | 0.00 | 0.00 | 0.00 | 99 | 1012.4 | |
| 20260504001936 | 13 | 0.0 | 0.0 | 0.00 | 0.00 | 0.00 | 99 | 1012.6 | |
| 20260504001430 | 13 | 0.0 | 0.0 | 0.00 | 0.00 | 0.00 | 99 | 1012.6 | |
| 20260504000932 | 13 | 0.0 | 0.0 | 0.00 | 0.00 | 0.00 | 99 | 1012.6 | |
| 20260504000417 | 13 | 0.0 | 0.0 | 0.00 | 0.00 | 0.00 | 99 | 1012.7 | |
| 20260503235911 | 13 | 0.0 | 0.0 | 0.00 | 0.00 | 0.00 | 99 | 1012.7 | |
| 20260503235406 | 13 | 0.0 | 0.0 | 0.00 | 0.00 | 0.64 | 99 | 1012.7 | |
| 20260503234859 | 13 | 0.0 | 0.0 | 0.00 | 0.00 | 0.64 | 99 | 1012.7 | |
| 20260503234353 | 13 | 0.0 | 0.0 | 0.00 | 0.00 | 0.64 | 99 | 1012.7 | |
| 20260503233856 | 13 | 0.0 | 0.0 | 0.00 | 0.00 | 0.64 | 99 | 1012.9 | |
| 20260503233341 | 13 | 0.0 | 0.0 | 0.00 | 0.00 | 0.64 | 99 | 1013.1 | |
| 20260503232836 | 13 | 0.0 | 0.0 | 0.00 | 0.00 | 0.64 | 99 | 1013.1 | |
| 20260503232330 | 13 | 0.0 | 0.0 | 0.00 | 0.00 | 0.64 | 99 | 1013.2 | |
| 20260503231824 | 13 | 0.0 | 0.0 | 0.00 | 0.00 | 0.64 | 99 | 1013.2 | |
| 20260503231318 | 13 | 0.0 | 0.0 | 0.00 | 0.00 | 0.64 | 99 | 1013.2 | |
| 20260503230820 | 13 | 0.0 | 0.0 | 0.00 | 0.00 | 0.64 | 99 | 1013.2 | |
| 20260503230306 | 13 | 0.0 | 0.0 | 0.00 | 0.00 | 0.64 | 99 | 1013.3 | |
| 20260503225759 | 14 | 1.6 | 3.2 | 0.00 | 0.00 | 0.64 | 99 | 1013.4 | |
| 20260503225253 | 14 | 0.0 | 0.0 | 0.00 | 0.00 | 0.64 | 99 | 1013.4 | |
| 20260503224747 | 14 | 0.0 | 0.0 | 0.00 | 0.00 | 0.64 | 99 | 1013.5 | |
| 20260503224241 | 14 | 0.0 | 0.0 | 0.00 | 0.00 | 0.64 | 99 | 1013.5 | |
| 20260503223743 | 14 | 0.0 | 0.0 | 0.00 | 0.00 | 0.64 | 99 | 1013.5 | |
| 20260503223229 | 14 | 0.0 | 0.0 | 0.00 | 0.00 | 0.64 | 99 | 1013.5 | |
| 20260503222723 | 14 | 0.0 | 0.0 | 0.00 | 0.00 | 0.64 | 99 | 1013.5 | |
| 20260503222217 | 14 | 0.0 | 0.0 | 0.00 | 0.00 | 0.64 | 99 | 1013.5 | |
| 20260503221711 | 15 | 0.0 | 0.0 | 0.00 | 0.00 | 0.64 | 99 | 1013.5 | |
| 20260503221205 | 15 | 0.0 | 0.0 | 0.00 | 0.00 | 0.64 | 99 | 1013.5 | |
| 20260503220707 | 15 | 0.0 | 0.0 | 0.00 | 0.00 | 0.64 | 99 | 1013.5 | |
| 20260503220152 | 15 | 0.0 | 0.0 | 0.00 | 0.00 | 0.64 | 99 | 1013.5 | |
| 20260503215645 | 15 | 0.0 | 0.0 | 0.28 | 0.00 | 0.64 | 99 | 1013.5 | |
| 20260503215139 | 15 | 0.0 | 0.0 | 0.23 | 0.00 | 0.56 | 99 | 1013.5 | |
| 20260503214632 | 15 | 0.0 | 0.0 | 0.15 | 0.00 | 0.51 | 99 | 1013.6 | |
| 20260503214126 | 15 | 0.0 | 0.0 | 0.10 | 0.00 | 0.46 | 99 | 1013.7 | |
| 20260503213629 | 15 | 0.0 | 0.0 | 0.10 | 0.00 | 0.46 | 99 | 1013.8 | |
| 20260503213114 | 15 | 0.0 | 0.0 | 0.10 | 0.00 | 0.46 | 99 | 1013.8 | |
| 20260503212608 | 15 | 0.0 | 0.0 | 0.10 | 0.00 | 0.46 | 99 | 1013.9 | |
| 20260503212102 | 15 | 0.0 | 0.0 | 0.05 | 0.00 | 0.41 | 99 | 1013.9 | |
| 20260503211555 | 16 | 0.0 | 0.0 | 0.05 | 0.00 | 0.41 | 99 | 1013.9 | |
| 20260503211049 | 16 | 0.0 | 0.0 | 0.05 | 0.00 | 0.41 | 99 | 1013.9 | |
| 20260503210552 | 16 | 0.0 | 0.0 | 0.05 | 0.00 | 0.41 | 99 | 1013.9 | |
| 20260503210037 | 15 | 0.0 | 0.0 | 0.05 | 0.00 | 0.41 | 99 | 1013.9 | |
| 20260503205530 | 16 | 0.0 | 0.0 | 0.33 | 0.00 | 0.33 | 99 | 1014.0 | |
| 20260503205024 | 16 | 0.0 | 1.6 | 0.33 | 0.00 | 0.33 | 99 | 1014.0 | |
| 20260503204518 | 16 | 3.2 | 8.0 | 0.33 | 0.00 | 0.33 | 99 | 1013.9 | |
| 20260503204012 | 16 | 0.0 | 1.6 | 0.33 | 0.00 | 0.33 | 99 | 1013.9 | |
| 20260503203515 | 16 | 0.0 | 0.0 | 0.33 | 0.00 | 0.33 | 99 | 1013.8 | |
| 20260503203000 | 16 | 0.0 | 1.6 | 0.33 | 0.00 | 0.33 | 99 | 1013.7 | |
| 20260503202455 | 16 | 0.0 | 0.0 | 0.33 | 0.00 | 0.33 | 99 | 1013.5 | |
| 20260503201949 | 16 | 0.0 | 0.0 | 0.23 | 0.00 | 0.23 | 99 | 1013.5 | |
| 20260503201443 | 16 | 0.0 | 0.0 | 0.05 | 0.00 | 0.05 | 99 | 1013.4 | |
| 20260503200937 | 16 | 0.0 | 0.0 | 0.05 | 0.00 | 0.05 | 99 | 1013.4 | |
| 20260503200439 | 16 | 0.0 | 0.0 | 0.05 | 0.00 | 0.05 | 99 | 1013.3 | |
| 20260503195924 | 16 | 0.0 | 0.0 | 0.00 | 0.00 | 0.00 | 99 | 1013.2 | |
| 20260503195418 | 16 | 0.0 | 0.0 | 0.00 | 0.00 | 0.00 | 99 | 1013.1 | |
| 20260503194912 | 16 | 0.0 | 0.0 | 0.00 | 0.00 | 0.00 | 99 | 1013.0 | |
| 20260503194406 | 16 | 0.0 | 0.0 | 0.00 | 0.00 | 0.00 | 99 | 1012.9 | |
| 20260503193900 | 16 | 0.0 | 0.0 | 0.00 | 0.00 | 0.00 | 99 | 1012.9 | |
| 20260503193403 | 16 | 0.0 | 0.0 | 0.00 | 0.00 | 0.00 | 99 | 1012.9 | |
| 20260503192848 | 16 | 0.0 | 0.0 | 0.00 | 0.00 | 0.00 | 99 | 1012.9 | |
| 20260503192343 | 16 | 0.0 | 0.0 | 0.00 | 0.00 | 0.00 | 99 | 1013.0 | |
| 20260503191837 | 16 | 0.0 | 0.0 | 0.00 | 0.00 | 0.00 | 99 | 1012.9 | |
| 20260503191331 | 16 | 0.0 | 0.0 | 0.00 | 0.00 | 0.00 | 99 | 1012.8 | |
| 20260503190825 | 16 | 0.0 | 0.0 | 0.00 | 0.00 | 0.00 | 99 | 1012.7 | |
| 20260503190328 | 16 | 0.0 | 0.0 | 0.00 | 0.00 | 0.00 | 99 | 1012.7 | |
| 20260503185812 | 16 | 0.0 | 0.0 | 0.00 | 0.00 | 0.00 | 99 | 1012.7 | |
| 20260503185306 | 16 | 0.0 | 0.0 | 0.00 | 0.00 | 0.00 | 99 | 1012.6 | |
| 20260503184800 | 16 | 0.0 | 0.0 | 0.00 | 0.00 | 0.00 | 99 | 1012.6 | |
| 20260503184255 | 17 | 0.0 | 0.0 | 0.00 | 0.00 | 0.00 | 99 | 1012.6 | |
| 20260503183749 | 17 | 0.0 | 0.0 | 0.00 | 0.00 | 0.00 | 99 | 1012.5 | |
| 20260503183251 | 17 | 0.0 | 0.0 | 0.00 | 0.00 | 0.00 | 99 | 1012.4 | |
| 20260503182736 | 17 | 0.0 | 0.0 | 0.00 | 0.00 | 0.00 | 99 | 1012.4 | |
| 20260503182230 | 17 | 0.0 | 0.0 | 0.00 | 0.00 | 0.00 | 99 | 1012.3 | |
| 20260503181724 | 17 | 0.0 | 0.0 | 0.00 | 0.00 | 0.00 | 99 | 1012.2 | |
| 20260503181218 | 17 | 0.0 | 0.0 | 0.00 | 0.00 | 0.00 | 99 | 1012.3 | |
| 20260503180713 | 17 | 0.0 | 0.0 | 0.00 | 0.00 | 0.00 | 99 | 1012.3 | |
| 20260503180214 | 17 | 0.0 | 0.0 | 0.00 | 0.00 | 0.00 | 99 | 1012.2 | |
| 20260503175659 | 17 | 0.0 | 0.0 | 0.00 | 0.00 | 0.00 | 99 | 1012.1 | |
| 20260503175153 | 17 | 0.0 | 0.0 | 0.00 | 0.00 | 0.00 | 99 | 1012.2 | |
| 20260503174647 | 17 | 0.0 | 0.0 | 0.00 | 0.00 | 0.00 | 99 | 1012.2 | |
| 20260503174141 | 17 | 0.0 | 0.0 | 0.00 | 0.00 | 0.00 | 99 | 1012.2 | |
| 20260503173635 | 17 | 0.0 | 0.0 | 0.00 | 0.00 | 0.00 | 99 | 1012.3 | |
| 20260503173138 | 17 | 0.0 | 0.0 | 0.00 | 0.00 | 0.00 | 99 | 1012.4 | |
| 20260503172624 | 17 | 0.0 | 0.0 | 0.00 | 0.00 | 0.00 | 99 | 1012.3 | |
| 20260503172118 | 17 | 0.0 | 0.0 | 0.00 | 0.00 | 0.00 | 99 | 1012.4 | |
| 20260503171612 | 17 | 0.0 | 0.0 | 0.00 | 0.00 | 0.00 | 99 | 1012.4 | |
| 20260503171106 | 17 | 0.0 | 0.0 | 0.00 | 0.00 | 0.00 | 99 | 1012.3 | |
| 20260503170600 | 17 | 0.0 | 0.0 | 0.00 | 0.00 | 0.00 | 99 | 1012.3 | |
| 20260503150839 | 19 | 1.6 | 6.4 | 0.00 | 0.00 | 0.00 | 99 | 1013.1 | |
| 20260503150333 | 19 | 1.6 | 4.8 | 0.00 | 0.00 | 0.00 | 99 | 1013.0 | |
| 20260503140220 | 20 | 0.0 | 1.6 | 0.00 | 0.00 | 0.00 | 99 | 1013.5 | |
| 20260503131122 | 20 | 0.0 | 0.0 | 0.00 | 0.00 | 0.00 | 99 | 1013.8 | |
| 20260503130616 | 20 | 0.0 | 1.6 | 0.00 | 0.00 | 0.00 | 99 | 1013.8 | |
| 20260503130111 | 20 | 0.0 | 1.6 | 0.00 | 0.00 | 0.00 | 99 | 1013.9 | |
| 20260503110357 | 21 | 3.2 | 9.7 | 0.00 | 0.00 | 0.00 | 99 | 1014.7 | |
| 20260503100247 | 23 | 3.2 | 8.0 | 0.00 | 0.00 | 0.00 | 99 | 1015.1 | |
| 20260503090134 | 21 | 1.6 | 6.4 | 0.00 | 0.00 | 0.00 | 99 | 1015.2 | |
| 20260503081538 | 19 | 3.2 | 8.0 | 0.00 | 0.00 | 0.00 | 99 | 1015.2 | |
| 20260503081032 | 20 | 1.6 | 4.8 | 0.00 | 0.00 | 0.00 | 99 | 1015.3 | |
| 20260503080526 | 20 | 1.6 | 6.4 | 0.00 | 0.00 | 0.00 | 99 | 1015.3 |